Location: Le Pont-de-Coulogne
(50.9242°N, 1.8700°E)
Time: 15:48:55
(UTC+00:00)

Cosmos-2242 - Pass Details

Date: 15 May 2026
Orbit: 565 x 588 km, 82.5° (Epoch: 10 June)

Event Time Altitude Azimuth Distance (km) Brightness Sun altitude
Exits shadow 21:37:57 24° 130° (SE) 1,213 4.0 -14.4°
Maximum altitude 21:39:31 31° 91° (E) 1,004 3.9 -14.5°
Drops below altitude 10° 21:43:11 10° 28° (NNE) 1,876 5.9 -14.8°
Sets 21:45:32 0° 19° (NNE) 2,777 7.0 -15.0°
